Flag for Canada Weather past 2 weeks in Halton Hills, Ontario, Canada

55 °F

Drizzle. Overcast.

Feels Like: 51 °F
Forecast: 31 / 53 °F
Wind: 16 mph from Southwest

Location: Toronto Pearson International Airport

Current Time: Nov 27, 2015 at 2:35:54 PM

Latest Report: Nov 27, 2015 at 2:00 PM

Visibility: 10 mi

Pressure: 30.15 "Hg

Humidity: 82%

Dew point: 50 °F

Location of Halton HillsLocation

Historic Weather in Halton Hills — Graph


Halton Hills temperature yesterday

Maximum temperature yesterday: 59 °F (at 2:00 PM)
Minimum temperature yesterday: 41 °F (at 12:00 AM)
Average temperature yesterday: 52 °F

Past Weeks' High & Low Weather Summary

High61 °F (Nov 19, 3:00 AM)93% (Nov 16, 3:00 AM)30.59 "Hg (Nov 16, 3:00 AM)
Low21 °F (Nov 23, 2:00 AM)39% (Nov 20, 1:00 PM)29.29 "Hg (Nov 12, 1:00 PM)
Average43 °F69%30.11 "Hg
* Reported Nov 12 1:00 PM — Nov 27 1:00 PM, Halton Hills, Weather by CustomWeather, © 2015

Note: Actual official high and low records may vary slightly from our data, if they occured in-between our weather recording intervals... More about our weather records


Halton Hills weather history for previous 24 hours

Time TempWeatherWind HumidityBarometerVisibility
1:00 PM
Fri, Nov 27
54 °FLight rain. Overcast.18 mph88%30.16 "Hg12 mi
12:00 PM54 °FMore clouds than sun.14 mph88%30.17 "Hg15 mi
11:53 AM54 °FMore clouds than sun.13 mph88%30.17 "Hg15 mi
11:00 AM54 °FLight rain. More clouds than sun.21 mph88%30.18 "Hg12 mi
10:00 AM55 °FLight rain. More clouds than sun.21 mph77%30.19 "Hg10 mi
9:00 AM59 °FBroken clouds.13 mph59%30.19 "Hg15 mi
8:00 AM57 °FPartly sunny.9 mph59%30.20 "Hg15 mi
7:00 AM59 °FPartly cloudy.10 mph51%30.21 "Hg15 mi
6:00 AM59 °FPassing clouds.15 mph51%30.22 "Hg15 mi
5:00 AM59 °FPassing clouds.13 mph51%30.23 "Hg15 mi
4:00 AM59 °FMostly cloudy.15 mph51%30.25 "Hg15 mi
3:00 AM59 °FMostly cloudy.18 mph51%30.27 "Hg15 mi
2:00 AM59 °FPassing clouds.18 mph51%30.27 "Hg15 mi
1:00 AM59 °FPassing clouds.21 mph51%30.28 "Hg15 mi
12:00 AM59 °FPassing clouds.20 mph51%30.29 "Hg15 mi
11:00 PM
Thu, Nov 26
59 °FPartly cloudy.16 mph55%30.29 "Hg15 mi
10:00 PM59 °FPassing clouds.20 mph55%30.30 "Hg15 mi
9:00 PM59 °FPartly cloudy.15 mph55%30.32 "Hg15 mi
8:00 PM59 °FPartly cloudy.17 mph55%30.32 "Hg15 mi
7:00 PM57 °FPartly cloudy.17 mph55%30.34 "Hg15 mi
6:00 PM57 °FPassing clouds.10 mph51%30.36 "Hg15 mi
4:00 PM59 °FMostly cloudy.12 mph51%30.39 "Hg15 mi
3:00 PM57 °FCloudy.17 mph55%30.39 "Hg15 mi
2:00 PM59 °FMostly cloudy.20 mph48%30.39 "Hg15 mi
Weather by CustomWeather, © 2015

See weather overviewHow to use our weather pages